Location: Oshawa
(43.9000°N, 78.8670°W)
Time: 05:18:24
(UTC-04:00)

Daily predictions for brighter satellites

Satellite Brightness Start Highest point End
(mag) Time Altitude Azimuth Time Altitude Azimuth Time Altitude Azimuth
Cosmos 1943 Rocket 4.2 00:10:18 23° NNW 00:10:18 23° NNW 00:13:03 10° N
CZ-4C R/B 4.4 00:33:39 22° NW 00:34:10 22° NNW 00:38:59 10° NNE
ATLAS 3B R/B 4.0 00:54:09 37° N 00:54:09 37° N 00:58:47 10° NNE
Cosmos 2263 Rocket 4.5 02:03:43 10° N 02:05:55 20° NNE 02:05:55 20° NNE
CENTAUR R/B 4.0 02:23:02 32° NE 02:23:02 32° NE 02:26:39 10° NE
Resurs 1-4 Rocket 4.2 02:51:24 10° NE 02:53:59 22° ENE 02:53:59 22° ENE
CZ-2D R/B 3.8 03:03:33 10° NNE 03:06:59 29° ENE 03:06:59 29° ENE
Cosmos 2322 Rocket 3.6 03:14:58 35° NNE 03:14:58 35° NNE 03:18:07 10° NNE
SL-16 R/B 3.4 03:22:22 38° NNE 03:22:22 38° NNE 03:25:49 10° NNE
SL-16 R/B 3.1 03:21:34 53° NNE 03:21:34 53° NNE 03:26:26 10° N
ARIANE 5 R/B 3.8 03:25:46 10° NNE 03:29:07 37° NE 03:29:07 37° NE
COSMOS 2428 4.3 03:35:39 26° ESE 03:35:47 26° ESE 03:40:24 10° NE
Cosmos 2360 Rocket 2.9 03:42:22 51° ENE 03:42:22 51° ENE 03:46:46 10° NNE
Cosmos 1980 Rocket 4.0 03:43:56 21° NNW 03:43:56 21° NNW 03:47:02 10° N
ATLAS 5 CENTAUR R/B 4.1 03:42:25 10° NNW 03:47:30 30° NE 03:52:58 10° E
ADEOS Rocket 3.0 03:50:37 10° NNE 03:55:33 64° ENE 03:55:33 64° ENE
Cosmos 2184 Rocket 4.2 03:53:44 10° N 03:59:56 65° E 04:01:18 52° SE
IRS-1D 4.3 03:56:58 10° N 04:00:22 44° N 04:00:22 44° N
CENTAUR R/B 3.7 04:10:12 29° NW 04:11:11 30° NNW 04:17:24 10° NNE
COBE Rocket 4.1 04:10:20 10° NNE 04:15:12 75° ENE 04:15:12 75° ENE
Cosmos 1743 4.4 04:17:29 10° NNE 04:20:57 31° ENE 04:21:36 29° E
Cosmos 2333 Rocket 3.9 04:19:44 18° SSE 04:22:44 29° ESE 04:27:34 10° NE
USA 215 3.9 04:17:47 10° ESE 04:24:04 52° NNE 04:30:22 10° NW
Cosmos 2322 3.7 04:26:35 68° WNW 04:26:35 68° WNW 04:32:17 10° NNE
Meteor 2-13 Rocket 4.4 04:20:27 10° N 04:26:38 83° E 04:29:10 38° SSE
USA 229 DEB 4.3 04:29:44 31° S 04:32:35 49° ESE 04:39:11 10° NE
USA 229 4.4 04:29:49 31° S 04:32:41 48° ESE 04:39:17 10° NE
Cosmos 2154 Rocket 4.3 04:28:13 10° N 04:34:23 64° E 04:40:33 10° SSE
DELTA 2 R/B (1) 3.8 04:34:43 53° SSE 04:34:43 53° SSE 04:39:53 10° E
Resurs 1-4 Rocket 2.8 04:30:49 10° N 04:35:04 40° NW 04:35:04 40° NW
Cosmos 2327 Rocket 4.4 04:35:42 10° NNW 04:41:53 65° W 04:43:10 52° SW
UNKNOWN OBJECT B 4.3 04:38:21 10° N 04:40:16 27° NNW 04:40:16 27° NNW
Cosmos 1844 3.9 04:37:07 10° NNW 04:42:54 71° ENE 04:48:35 10° SSE
MOS 1 Rocket 3.3 04:39:04 10° NNE 04:43:42 70° E 04:44:28 57° SSE
Cosmos 1238 Rocket 3.9 04:45:26 32° ENE 04:45:26 32° ENE 04:47:39 10° NNE
Cosmos 2333 4.2 04:44:35 51° SSW 04:46:05 83° ESE 04:51:50 10° NNE
CZ-2D R/B 3.0 04:43:38 10° N 04:48:20 35° WNW 04:48:20 35° WNW
Nadezhda 1 Rocket 3.8 04:47:12 45° SSW 04:49:09 77° W 04:55:15 10° N
Cosmos 1610 Rocket 4.4 04:43:50 10° N 04:50:08 75° W 04:54:24 22° S
CZ-4B R/B 4.2 04:47:19 10° NNE 04:52:43 46° E 04:58:00 10° S
Cosmos 2208 Rocket 4.0 04:52:22 54° SW 04:53:37 77° WNW 04:59:05 10° NNE
ADEOS II 2.9 04:49:09 10° NNE 04:54:15 48° E 04:59:00 12° S
Cosmos 2322 Rocket 3.9 04:56:46 17° NW 04:57:21 17° NW 05:00:56 10° N
Meteor 1-18 Rocket 4.5 04:57:27 45° W 04:57:58 46° WNW 05:03:23 10° N
Cosmos 1025 Rocket 4.4 04:57:47 10° SSE 05:01:51 38° E 05:05:57 10° NNE
NOSS 0 Rocket 4.5 04:59:30 18° S 05:04:03 55° ESE 05:10:04 10° NE
SL-16 R/B 4.1 05:06:39 18° WNW 05:06:39 18° WNW 05:08:58 10° NW
Cosmos 2219 Rocket 2.2 05:02:20 31° SSW 05:05:05 78° ESE 05:10:42 10° NNE
Cosmos 2074 Rocket 4.4 04:59:22 10° NNW 05:05:05 39° W 05:05:53 37° WSW
SL-16 R/B 4.0 05:04:14 15° NW 05:05:10 16° NW 05:08:32 10° N
Cosmos 1844 Rocket 2.6 05:03:10 10° NNW 05:08:37 57° WSW 05:14:02 10° S
ARIANE 5 R/B 3.9 05:05:41 10° NNW 05:09:28 22° WNW 05:09:28 22° WNW
Cosmos 1867 3.5 05:04:16 10° NW 05:09:46 89° ENE 05:15:12 10° SSE
Meteor 1-13 Rocket 4.1 05:08:27 25° SSW 05:11:48 82° W 05:17:29 10° N
Cosmos 468 Rocket 4.2 05:10:37 22° S 05:14:02 72° ESE 05:19:16 10° NNE
CZ-4B R/B 2.6 05:11:29 10° NNE 05:15:09 87° E 05:16:29 38° S
Meteor 2-9 Rocket 4.4 05:09:45 10° N 05:15:26 72° ENE 05:20:54 10° SSE
Cosmos 1437 4.5 05:15:45 10° SSE 05:18:45 33° E 05:21:44 10° NNE
Cosmos 1898 Rocket 3.3 05:14:25 10° NNW 05:19:39 80° WSW 05:24:48 10° SSE
COSMOS 2428 3.0 05:17:41 34° WSW 05:19:44 49° WNW 05:25:16 10° NNE
Cosmos 2341 Rocket 3.9 05:13:38 10° N 05:19:53 79° W 05:26:04 10° S
Okean O Rocket 1.5 05:15:45 10° N 05:20:13 81° WNW 05:22:51 25° SSW
Cosmos 2150 Rocket 4.1 05:17:09 10° NNW 05:22:29 85° ENE 05:27:52 10° SSE
Cosmos 2360 Rocket 3.5 05:24:08 21° WNW 05:25:39 23° NW 05:30:07 10° N
Cosmos 1340 4.4 05:28:08 18° NW 05:28:08 18° NW 05:30:09 10° NNW
Meteor 2-19 Rocket 4.3 05:24:42 10° NNW 05:30:48 77° W 05:36:50 10° S
Cosmos 2278 Rocket 2.1 05:26:28 10° NNW 05:32:10 85° WSW 05:37:50 10° SSE
ATLAS 5 CENTAUR R/B 2.3 05:26:43 10° NW 05:32:42 70° WSW 05:39:10 10° SSE
PSLV R/B 4.2 05:32:06 10° N 05:35:38 39° WNW 05:36:42 31° WSW
Cosmos 1763 Rocket 4.0 05:31:25 10° S 05:36:24 60° ESE 05:41:28 10° NNE
Meteor 1-23 Rocket 4.3 05:31:27 10° S 05:37:15 85° E 05:43:01 10° NNE
Cosmos 2237 Rocket 2.2 05:32:20 12° SSW 05:37:32 84° ESE 05:43:17 10° NNE
Cosmos 858 Rocket 4.5 05:33:29 10° NNW 05:38:42 63° WSW 05:43:51 10° S
Okean-O 3.8 05:35:12 10° NNE 05:39:28 45° E 05:43:43 10° S
ADEOS Rocket 4.3 05:37:33 10° NNW 05:41:06 18° WNW 05:42:30 16° WNW
Cosmos 1666 3.0 05:37:53 10° NNW 05:41:36 44° W 05:45:17 10° SSW
SL-8 R/B 3.7 05:40:14 18° WNW 05:43:42 63° SSW 05:48:24 10° SE
Cosmos 1937 Rocket 3.4 05:38:48 10° NNW 05:44:06 68° WSW 05:49:20 10° S
Cosmos 1295 Rocket 4.5 05:40:47 10° NNW 05:46:53 60° W 05:52:54 10° S
Cosmos 1959 Rocket 4.5 05:42:12 10° N 05:48:20 89° ENE 05:54:30 10° S
Cosmos 2297 4.2 05:45:11 10° NNW 05:50:55 65° ENE 05:56:36 10° SE
PSLV R/B 3.7 05:47:12 10° N 05:51:26 52° WNW 05:55:37 10° SSW
Cosmos 2285 Rocket 4.1 05:45:56 11° SSW 05:52:12 65° WNW 05:58:37 10° NNE
Cosmos 841 Rocket 3.8 05:47:59 10° S 05:53:05 69° ESE 05:58:12 10° NNE
Cosmos 405 Rocket 2.7 05:49:28 10° SSW 05:53:29 71° W 05:57:28 10° N
Meteor 2-4 Rocket 3.8 05:49:49 10° SSW 05:55:14 55° WNW 06:00:34 10° N
CZ-2C R/B 4.0 05:51:49 10° S 05:56:08 43° W 06:00:26 10° NNW
Cosmos 1743 4.1 05:53:51 10° NW 05:56:33 18° W 05:56:40 18° W
Cosmos 405 3.8 05:57:55 10° N 06:01:26 54° ENE 06:04:55 10° SSE
Cosmos 2058 Rocket 3.2 05:59:13 10° N 06:03:43 83° E 06:08:10 10° S
Meteor PRIRODA 3.7 06:00:42 10° N 06:04:26 62° WNW 06:08:09 10° SSW
Cosmos 2366 rocket 4.0 05:58:45 10° N 06:05:07 78° W 06:11:27 10° S
GPS 2-04 Rocket1 4.2 06:02:49 13° SW 06:05:28 24° S 06:08:38 10° ESE
CZ-4C R/B 3.5 05:59:46 10° NNW 06:06:42 59° NE 06:14:25 10° SE
Cosmos 2333 Rocket 2.6 06:01:47 12° SW 06:06:45 46° WNW 06:12:17 10° NNE
USA 215 3.3 06:00:37 10° SSE 06:07:02 57° SW 06:13:28 10° NW
Timation 1 Rocket 4.3 06:02:32 10° NNW 06:08:30 68° WSW 06:14:24 10° SSE
Cosmos 1814 Rocket 4.2 06:04:48 10° SW 06:09:49 50° WNW 06:14:51 10° N
Meteor 1-15 Rocket 4.4 06:04:48 10° NNW 06:10:35 56° W 06:16:20 10° S
ERBS 2.6 06:07:47 10° NW 06:11:16 74° NE 06:14:45 10° SE
NOAA 6 4.5 06:07:58 10° NNE 06:13:04 66° ESE 06:18:09 10° S
Cosmos 1606 Rocket 3.9 06:10:33 10° NNW 06:14:51 46° W 06:19:06 10° SSW
Meteor 2-21 4.4 06:10:11 10° NNW 06:16:25 76° W 06:22:34 10° S
Aureole 2 Rocket 3.4 06:14:51 12° WSW 06:17:29 26° WNW 06:20:17 10° N
OTV 4 2.3 06:16:19 10° SW 06:18:23 19° SSE 06:20:27 10° ESE
Meteor 1-31 Rocket 2.8 06:16:01 10° N 06:19:45 56° WNW 06:23:29 10° SSW
Cosmos 1346 2.8 06:17:14 10° S 06:20:04 84° W 06:22:55 10° N
DELTA 2 R/B (1) 4.0 06:15:28 11° W 06:20:35 49° SSW 06:25:54 10° ESE
ERS-2 2.4 06:18:58 10° N 06:22:33 47° WNW 06:26:06 10° SW
SWAS 4.4 06:18:30 10° NNW 06:22:50 69° WSW 06:27:07 10° SSE
USA 229 DEB 4.3 06:17:12 10° WSW 06:23:39 42° NW 06:30:16 10° NNE
USA 229 4.3 06:17:17 10° WSW 06:23:45 43° NW 06:30:22 10° NNE
Iridium 2 4.5 06:20:28 10° NNW 06:23:54 31° W 06:27:18 10° SSW
SJ-6F 4.4 06:20:07 10° N 06:24:12 78° WNW 06:28:16 10° SSW
Cosmos 2228 3.0 06:23:26 10° NNW 06:27:45 67° W 06:32:04 10° S
Meteor 2-14 Rocket 4.5 06:25:04 10° N 06:31:14 78° W 06:37:22 10° S
ATLAS 3B R/B 4.4 06:25:23 10° NNW 06:31:28 31° NE 06:37:14 10° E
CZ-4B R/B 4.2 06:28:20 10° N 06:33:01 28° WNW 06:37:39 10° WSW
ADEOS II 3.2 06:29:30 10° N 06:33:40 24° WNW 06:37:48 10° WSW
Nadezhda 3 Rocket 4.2 06:28:34 10° S 06:34:42 81° E 06:40:56 10° N
NOSS 3-1 (A) 3.5 06:29:38 10° SW 06:35:28 85° NW 06:42:06 10° NE
SL-16 R/B 2.2 06:30:43 10° SSW 06:36:22 78° WNW 06:42:06 10° NNE
NOSS 3-1 (C) 3.5 06:30:38 10° SW 06:36:26 66° NW 06:43:01 10° NNE
